{"data":{"norad_id":53216,"intl_designator":"2022-084AD","name":"STARLINK-4376","alt_names":[],"object_type":"PAYLOAD","status":"ACTIVE","operator":null,"country":"US","launch_date":"2022-07-22","launch_site_code":"AFWTR","launch_vehicle":null,"mission":null,"orbit_class":"UNKNOWN","rcs_meters":null,"size_class":null,"mass_kg":null,"dimensions":null,"purposes":["comms"],"wikipedia_slug":null,"has_3d_model":false,"image_url":null,"decayed_at":null,"tle_current":{"epoch":"2026-09-19T09:33:28.461312Z","epoch_age_seconds":167486,"freshness":"FRESH","line1":"1 53216U 22084AD  26262.39824608  .00000618  00000+0  21485-4 0  9999","line2":"2 53216  97.2852 317.2360 0001088  91.2984 268.8383 15.33436315228525","mean_motion":15.33436315,"eccentricity":0.0001088,"inclination_deg":97.2852,"raan_deg":317.236,"arg_perigee_deg":91.2984,"mean_anomaly_deg":268.8383,"bstar":2.1485e-5,"rev_number":22852,"period_min":93.906736518106,"perigee_km":464.82441983524,"apogee_km":466.31361026411,"semimajor_km":6843.7060150497,"source":"CELESTRAK","updated_at":"2026-09-20T09:00:40.194041Z"}}}